Regional Weather Roundup
Issued by NWS Newport/Morehead, NC

Current Version | Previous Version | Graphics & Text | Print | Product List | Glossary Off
Versions: 1 2 3 4 5 6 7 8 9 10 11 12 13 14 15 16 17 18 19 20 21 22 23 24 25 26 27 28 29 30 31 32 33 34 35 36 37 38 39 40 41 42 43 44 45 46 47 48 49 50

000
ASUS42 KMHX 260313
RWRMHX
WEATHER ROUNDUP FOR EASTERN NORTH CAROLINA
NATIONAL WEATHER SERVICE NEWPORT/MOREHEAD CITY NC
1100 PM EDT MON MAY 25 2015

NOTE: "FAIR" INDICATES FEW OR NO CLOUDS BELOW 12,000 FEET
WITH NO SIGNIFICANT WEATHER AND/OR OBSTRUCTIONS TO VISIBILITY

NCZ015>017-031-032-045>047-102-103-260400-
NORTH COAST

CITY           SKY/WX    TMP DP  RH WIND       PRES   REMARKS
EDENTON        CLEAR     71  62  75 S13       30.31S
ELIZABETH CITY CLEAR     70  61  73 S9        30.31S
KITTY HAWK     CLEAR     72  63  73 S3        30.31F
MANTEO         PTCLDY    73  64  74 S10       30.33S

$$

NCZ045>047-081-094-103-104-260400-
CENTRAL COAST

CITY           SKY/WX    TMP DP  RH WIND       PRES   REMARKS
FRISCO         CLEAR     72  62  71 S10       30.33S
SWANQUARTER      N/A     73 N/A N/A S12       30.30S

$$

NCZ095-097-098-100-101-260400-
SOUTHERN COAST

CITY           SKY/WX    TMP DP  RH WIND       PRES   REMARKS
BEAUFORT       PTCLDY    72  63  73 S8        30.32S
CEDAR ISLAND     N/A     72 N/A N/A SE3G9     30.36S
JACKSONVILLE   CLEAR     68  62  81 SE6       30.30S
PINEY ISLAND   CLEAR    N/A N/A N/A S5        30.32S
WILMINGTON     CLEAR     67  63  87 CALM      30.31R


$$

NCZ011>013-027>030-043-044-078>080-089-090>093-098-260400-
COASTAL PLAIN

CITY           SKY/WX    TMP DP  RH WIND       PRES   REMARKS
AHOSKIE        CLEAR     66  59  80 S5        30.30S
CLINTON        CLEAR     69  63  81 CALM      30.31S
ELIZABETHTOWN  CLEAR     69  62  80 SE3       30.30S
GOLDSBORO      NOT AVBL
GREENVILLE     CLEAR     70  63  78 S7        30.31S
HAVELOCK       CLEAR     65  60  84 SE5       30.33S
KENANSVILLE    CLEAR     65  60  82 CALM      30.32R
KINSTON        CLEAR     69  61  74 S3        30.32R
NEW BERN       CLEAR     64  59  83 CALM      30.33S
RICHLANDS      CLEAR     64  57  77 CALM      30.32R
ROCKY MOUNT    CLEAR     70  60  70 S6        30.30R
WASHINGTON     CLEAR     69  61  75 S6        30.32S
WHITEVILLE     CLEAR     69  64  84 CALM      30.29S

$$

AMZ130-135-150-152-154-156-158-170-250-252-270-ANZ085-086-088-633-658-670-260400-
MARINE OBSERVATIONS

STATION/POSITION TIME  TEMP    WIND        PRES    WAVE   SWELL
                       AIR SEA DIR/SP/G            HT/PER HT/PER
                 (UTC) (F)     (DEG/KT/KT) (MB)    (FT/S) (FT/S)
CHESAPEAKE LIGHT 0200   68     180/ 22/ 23 1026.0
64 E VA BEACH    0250   66 64  170/  8/ 10 1026.4    1/ 9   2/ 9
DUCK             0200   72 64  180/ 14/ 16 1025.5
2 E DUCK         0211      65                N/A     1/13
OREGON INLET     0200   74 77  180/ 12/ 14 1026.9
13E OREGON INLT  0300      68                N/A     1/ 8
HATTERAS CG      0200   74 76  170/  9/ 12 1026.7
DIAMOND BUOY     0250   74 76  170/ 14/ 17 1027.2    3/ 6   2/ 8
CAPE LOOKOUT     0300   74     160/ 11/ 12 1026.7
BEAUFORT LAB     0200   74 76  170/  7/  9 1025.8
27 SE WRIGHTSVLE 0200   72 76  140/ 12/ 14   N/A
5 SE WRIGHTSVLE  0208   75 77  170/ 10/ 14 1026.1
225 S CAPE HAT   0250   74 74  120/ 16/ 17 1026.9    3/ 5   2/ 8
41 SE CHARLESTON 0250   75 75   90/ 12/ 14 1024.6    4/ 6   2/ 6

$$



USA.gov is the U.S. government's official web portal to all federal, state and local government web resources and services.